TIBA-1

Last updated on Tue Sep 16 2025 00:02:50 GMT+0000 (Coordinated Universal Time)

1 44800U 19080A 25258.59159598 .00000139 00000+0 00000+0 0 9998 2 44800 0.0558 346.6025 0002632 205.0358 51.6426 1.00274264 21304
UTC large
Height (km)
Speed (km/s)
/
Latitude / Longitude
Inclination (degrees)
Orbital Period (minutes)
Azimuth
Elevation
Range (km)
Doppler Factor

Next 0 passes for location: London (51.5072 / 0.1276)

Sorry there are no passes over London.